TimeAKST,TemperatureF,Dew PointF,Humidity,Sea Level PressureIn,VisibilityMPH,Wind Direction,Wind SpeedMPH,Gust SpeedMPH,PrecipitationIn,Events,Conditions,WindDirDegrees,DateUTC
12:53 AM,39.9,37.9,93,29.80,10.0,Variable,4.6,-,0.01,Rain,Light Rain,0,2013-01-05 09:53:00
1:53 AM,41.0,37.0,86,29.77,10.0,Variable,6.9,-,0.01,Rain,Light Rain,0,2013-01-05 10:53:00
3:53 AM,44.1,34.0,68,29.74,10.0,Calm,Calm,-,0.00,,Mostly Cloudy,0,2013-01-05 12:53:00
4:53 AM,43.0,34.0,71,29.71,10.0,Variable,3.5,-,N/A,,Mostly Cloudy,0,2013-01-05 13:53:00
5:53 AM,43.0,34.0,71,29.68,10.0,Variable,6.9,-,N/A,,Overcast,0,2013-01-05 14:53:00
6:53 AM,42.1,35.1,76,29.67,10.0,Variable,6.9,-,0.00,Rain,Light Rain,0,2013-01-05 15:53:00
7:53 AM,41.0,35.1,79,29.65,10.0,NE,9.2,17.3,0.00,Rain,Light Rain,40,2013-01-05 16:53:00
8:53 AM,39.9,35.1,83,29.64,10.0,NE,8.1,18.4,0.01,Rain,Light Rain,40,2013-01-05 17:53:00
9:53 AM,39.0,36.0,89,29.62,10.0,NNE,9.2,-,0.01,Rain,Light Rain,30,2013-01-05 18:53:00
10:53 AM,39.0,36.0,89,29.61,10.0,Variable,3.5,-,0.01,Rain,Light Rain,0,2013-01-05 19:53:00
11:53 AM,39.9,37.0,89,29.60,10.0,NNE,6.9,-,0.00,,Overcast,20,2013-01-05 20:53:00
12:53 PM,39.9,37.0,89,29.63,10.0,Calm,Calm,-,N/A,,Overcast,0,2013-01-05 21:53:00
1:24 PM,39.2,37.4,93,29.65,10.0,SW,4.6,-,0.00,Rain,Light Rain,220,2013-01-05 22:24:00
1:51 PM,41.0,37.4,87,29.66,10.0,Variable,4.6,-,0.01,,Overcast,0,2013-01-05 22:51:00
1:53 PM,39.9,37.9,93,29.66,10.0,Variable,5.8,-,0.01,,Overcast,0,2013-01-05 22:53:00
2:06 PM,39.2,37.4,93,29.66,10.0,Variable,5.8,-,N/A,,Overcast,0,2013-01-05 23:06:00
2:53 PM,39.9,36.0,86,29.68,10.0,Variable,4.6,-,N/A,,Overcast,0,2013-01-05 23:53:00
3:23 PM,39.2,35.6,87,29.69,10.0,Variable,3.5,-,N/A,,Scattered Clouds,0,2013-01-06 00:23:00
3:53 PM,37.9,34.0,86,29.70,10.0,Variable,3.5,-,N/A,,Clear,0,2013-01-06 00:53:00
4:53 PM,36.0,34.0,93,29.68,10.0,NE,4.6,-,N/A,,Partly Cloudy,50,2013-01-06 01:53:00
5:53 PM,37.0,34.0,89,29.67,10.0,NNE,9.2,-,N/A,,Mostly Cloudy,30,2013-01-06 02:53:00
6:53 PM,37.0,35.1,93,29.67,8.0,NNE,8.1,-,0.01,Rain,Light Rain,30,2013-01-06 03:53:00
7:49 PM,37.4,35.6,93,29.66,5.0,NNE,5.8,-,0.02,Rain,Rain,20,2013-01-06 04:49:00
7:53 PM,37.0,35.1,93,29.66,5.0,NNE,6.9,-,0.03,Rain,Rain,20,2013-01-06 04:53:00
8:43 PM,37.4,35.6,93,29.65,10.0,NE,3.5,-,0.04,Rain,Light Rain,40,2013-01-06 05:43:00
8:53 PM,36.0,35.1,97,29.65,10.0,NE,8.1,-,0.05,Rain,Light Rain,40,2013-01-06 05:53:00
9:53 PM,37.0,35.1,93,29.66,10.0,NNE,10.4,-,0.00,,Overcast,30,2013-01-06 06:53:00
10:53 PM,36.0,34.0,93,29.67,10.0,NNE,6.9,-,N/A,,Overcast,30,2013-01-06 07:53:00
11:53 PM,37.0,35.1,93,29.68,10.0,NE,4.6,-,N/A,,Overcast,40,2013-01-06 08:53:00